This is the latest recevied weather packets stored in our database for station/object DG4DAA-13. If no packets are shown the sender has not sent any weather packets the latest 10 day(s).
| Time | Temp. | Humidity | Pressure | Rain* | Wind** | Luminosity | Snow |
|---|---|---|---|---|---|---|---|
| 1778054898 | 8.89° C | 94% | 1008 hPa | 1.27 mm | - | - | - |
| 1778053098 | 8.89° C | 94% | 1007.8 hPa | 1.27 mm | - | - | - |
| 1778051298 | 8.89° C | 94% | 1007.7 hPa | 2.54 mm | - | - | - |
| 1778049498 | 8.89° C | 94% | 1007.6 hPa | 2.29 mm | - | - | - |
| 1778047698 | 8.89° C | 94% | 1007.4 hPa | 1.27 mm | - | - | - |
| 1778045898 | 8.89° C | 94% | 1007.3 hPa | 3.05 mm | - | - | - |
| 1778044098 | 8.89° C | 94% | 1007.4 hPa | 3.05 mm | - | - | - |
| 1778042298 | 8.89° C | 94% | 1007.4 hPa | 1.27 mm | - | - | - |
| 1778040501 | 9.44° C | 94% | 1007.3 hPa | 1.27 mm | - | - | - |
| 1778038698 | 9.44° C | 93% | 1007.3 hPa | 1.27 mm | - | - | - |
| 1778036899 | 9.44° C | 93% | 1007.4 hPa | 1.27 mm | - | - | - |
| 1778035099 | 10° C | 93% | 1007.7 hPa | 2.54 mm | - | - | - |
| 1778033299 | 10.56° C | 94% | 1007.8 hPa | 3.3 mm | - | - | - |
| 1778031499 | 10.56° C | 93% | 1008 hPa | 2.54 mm | - | - | - |
| 1778029699 | 10.56° C | 93% | 1008 hPa | 2.54 mm | - | - | - |
| 1778027899 | 10.56° C | 93% | 1008.2 hPa | 3.56 mm | - | - | - |
| 1778026099 | 11.11° C | 93% | 1008.4 hPa | 4.06 mm | - | - | - |
| 1778024321 | 11.11° C | 93% | 1008.8 hPa | 3.81 mm | - | - | - |
| 1778024299 | 11.11° C | 93% | 1008.8 hPa | 3.81 mm | - | - | - |
| 1778022499 | 11.11° C | 93% | 1009 hPa | 4.32 mm | - | - | - |
| 1778020699 | 11.11° C | 93% | 1009.2 hPa | 4.06 mm | - | - | - |
| 1778018899 | 11.11° C | 93% | 1009.3 hPa | 4.57 mm | - | - | - |
| 1778017099 | 11.11° C | 92% | 1009.5 hPa | 4.57 mm | - | - | - |
| 1778015299 | 11.11° C | 92% | 1009.6 hPa | 3.05 mm | - | - | - |
| 1778013533 | 11.67° C | 91% | 1009.8 hPa | 3.56 mm | - | - | - |
* Rain latest hour (hover to see other rain measurements)
** Current wind speed in m/s (hover to see current wind gust speed)